Probability
0 0 0 0 0 0 0 0 0 0 0 0 0 0 0 0 0 0 0 0 0 0 0 0 0 0 0 0 0 1 1 1 1 1 0 1 1 1
0 0 0 0 0 0 0 0 0 0 0 0 0 0 0 0 0 0 0 0 0 0 0 0 0 0 0 0 0 0 0 0 0 0 0 0 0 0
0 0 0 0 0 0 0 0 0 0 0 0 0 0 0 0 0 0 0 0 0 0 0 0 0 0 0 0 0 0 0 0 0 0 0 0 0 0
0 0 0 0 0 0 0 0 0 0 0 0 0 0 0 0 0 0 0 0 0 0 0 0 0 0 0 0 0 0 0 0 0 0 0 0 0 0
0 0 0 0 0 0 0 0 0 0 0 0 0 0 0 0 0 0 0 0 0 0 0 0 0 0 0 0 0 0 0 0 0 0 0 0 0 0
0 0 0 0 0 0 0 0 0 0 0 0 0 0 0 0 0 0 0 0 0 0 0 0 0 0 0 0 0 0 0 0 0 0 0 0 0 0
0 0 0 0 0 0 0 0 0 0 0 0 0 0 0 0 0 0 0 0 0 0 0 0 0 0 0 0 0 0 0 0 0 0 0 0 0 0
0 0 0 0 0 0 0 0 0 0 0 0 0 0 0 0 0 0 0 0 0 0 0 0 0 0 0 0 0 0 0 0 0 0 0 0 0 0
0 0 0 0 0 0 0 0 0 0 0 0 0 0 0 0 0 0 0 0 0 0 0 0 1 0 0 0 0 0 0 0 0 0 0 0 0 0
0 0 0 0 0 0 0 0 0 0 0 0 0 0 0 0 0 0 0 0 0 0 0 0 0 0 0 0 0 0 0 0 0 0 0 0 0 0
0 0 0 0 0 0 0 0 0 0 0 0 0 0 0 0 0 0 0 0 0 0 0 0 0 0 0 0 0 0 0 0 0 0 0 0 0 0
0 0 0 0 0 0 0 0 0 0 0 0 0 0 0 0 0 0 0 0 0 0 0 0 0 0 0 0 0 0 0 0 0 0 0 0 0 0
0 0 0 0 0 0 0 0 0 0 0 0 0 0 0 0 0 0 0 0 0 0 0 0 0 0 0 0 0 0 0 0 0 0 0 0 0 0
0 0 0 0 0 0 0 0 0 0 0 0 0 0 0 0 0 0 0 0 0 0 0 0 0 0 0 0 0 0 0 0 0 0 0 0 0 0
0 0 0 0 0 0 0 0 0 0 0 0 0 0 0 0 0 0 0 0 0 0 0 0 0 0 0 0 0 0 0 0 0 0 0 0 0 0
0 0 0 0 0 0 0 0 0 0 0 0 0 0 0 0 0 0 0 0 0 0 0 0 0 0 0 0 0 0 0 0 0 0 0 0 0 0
0 0 0 0 0 0 0 0 0 0 0 0 0 0 0 0 0 0 0 0 0 0 0 0 0 0 0 0 0 0 0 0 0 0 0 0 0 0
0 0 0 0 0 0 0 0 0 0 0 0 0 0 0 0 0 0 0 0 0 0 0 0 0 0 0 0 0 0 0 0 0 0 0 0 0 0
0 0 0 0 0 0 0 0 0 0 0 0 0 0 0 0 0 0 0 0 0 0 0 0 0 0 0 0 0 0 0 0 0 0 0 0 0 0
0 0 0 0 0 0 0 0 0 0 0 0 0 0 0 0 0 0 0 0 0 0 0 0 0 0 0 0 0 0 0 0 0 0 0 0 0 0
0 0 0 0 0 0 0 0 0 0 0 0 0 0 0 0 0 0 0 0 0 0 0 0 0 0 0 0 0 0 0 0 0 0 0 0 0 0
0 0 0 0 0 0 0 0 0 0 0 0 0 0 0 0 0 0 0 0 0 0 0 0 0 0 0 0 0 0 0 0 0 0 0 0 0 0
0 0 0 0 0 0 0 0 0 0 0 0 0 0 0 0 0 0 0 0 0 0 0 0 0 0 0 0 0 0 0 0 0 0 0 0 0 0
Wind_Speed
2 2 2 2 2 2 3 3 4 2 2 2 2 2 3 4 6 6 6 11 13 13 12 11 11 12 12 12 11 10 10 10 10 10 10 10 10 10
2 2 2 2 2 2 2 3 3 3 3 2 2 2 3 3 6 5 6 10 13 12 12 12 11 11 11 11 10 10 10 9 9 10 9 9 9 9
2 2 2 2 2 2 2 2 2 3 3 2 1 2 3 3 4 4 4 5 6 11 12 12 12 11 11 11 11 10 10 10 10 10 10 10 9 9
2 2 2 2 2 2 2 2 3 3 3 3 2 2 3 4 4 5 4 4 4 9 11 12 12 12 12 11 11 10 10 10 10 10 11 11 11 10
2 2 2 2 2 2 2 2 2 2 2 3 2 2 2 3 4 4 4 3 4 6 9 10 10 11 11 11 11 10 10 10 10 10 10 10 10 10
1 1 2 2 3 3 2 2 2 2 2 2 2 2 2 3 4 4 3 3 3 3 4 6 8 9 10 11 11 11 10 10 10 10 10 10 10 10
2 1 1 2 3 2 2 2 2 2 2 2 2 2 2 3 4 3 3 3 2 2 3 3 4 4 5 8 11 11 11 11 11 11 11 10 10 9
3 2 2 1 2 2 2 3 4 4 3 3 2 3 3 3 3 3 3 3 3 3 3 3 3 4 4 4 8 11 12 12 11 11 11 10 10 9
2 2 2 2 2 1 2 2 2 4 6 5 4 5 5 5 5 5 5 4 3 3 3 2 2 3 3 4 9 11 12 12 12 12 11 11 10 10
2 2 1 2 2 1 0 1 1 2 3 4 5 5 5 5 6 5 5 3 2 1 3 3 2 2 2 3 8 10 11 11 11 11 11 10 10 9
3 2 2 2 3 2 0 1 1 2 2 3 4 5 6 6 6 4 5 4 2 2 2 3 2 2 1 2 4 8 9 10 10 11 11 10 10 9
3 3 4 3 4 2 0 1 2 2 2 1 1 1 3 4 7 6 6 5 3 3 4 4 3 3 2 1 2 3 5 7 9 10 10 10 10 6
2 3 3 5 5 4 2 1 3 2 1 1 1 1 1 2 3 3 4 5 5 4 5 5 3 3 3 2 2 3 4 3 4 5 8 10 11 8
2 2 3 6 6 5 3 2 3 2 1 1 1 1 1 2 2 3 3 3 3 4 6 6 4 5 4 3 2 2 3 4 4 4 4 7 8 8
2 4 6 6 6 4 4 4 2 1 1 1 2 2 2 2 2 2 2 2 2 2 5 5 4 5 4 4 3 3 3 3 4 4 5 5 5 5
2 4 6 5 3 4 4 2 1 1 1 2 2 2 1 1 2 2 2 2 2 1 2 4 5 6 4 3 4 4 4 4 4 5 4 4 4 4
2 2 2 3 3 3 3 2 2 1 1 1 2 2 2 2 2 1 2 2 2 3 2 2 2 3 3 4 4 4 4 3 4 5 5 4 4 5
1 2 2 3 3 3 3 3 2 2 2 2 2 2 2 3 2 2 2 3 3 3 3 3 3 2 1 1 4 5 5 4 4 5 4 4 4 4
1 2 3 3 4 3 3 3 3 3 2 2 3 3 3 3 3 3 3 3 3 4 4 4 4 4 4 4 3 5 6 5 5 4 5 5 5 5
1 3 4 4 4 4 4 3 4 3 2 3 3 3 3 3 4 4 5 5 5 4 4 4 5 6 7 5 3 3 7 6 6 5 4 3 2 1
3 3 3 4 4 4 4 4 4 4 4 3 3 4 4 4 4 5 5 7 6 5 6 7 7 7 3 3 2 2 3 7 7 5 5 4 3 2
4 4 4 4 4 4 4 4 4 4 4 4 4 4 4 4 5 6 5 5 6 6 7 5 4 4 4 6 6 5 3 3 4 6 7 8 6 6
4 4 4 5 4 4 4 4 5 4 4 4 4 4 4 4 5 5 5 5 5 6 5 4 4 4 5 6 6 5 5 5 3 3 3 7 10 8
Wind_Direction
242 231 222 224 219 210 198 181 174 193 237 230 224 210 190 191 193 193 197 198 198 198 196 194 193 191 194 196 198 199 200 199 198 198 200 202 202 198
241 239 239 228 227 215 207 205 187 178 208 222 218 205 185 193 187 188 199 195 197 197 195 193 194 193 192 193 195 195 195 196 196 196 197 200 198 198
264 241 246 231 221 221 209 207 200 181 205 230 216 193 181 186 179 180 187 191 196 197 196 196 194 194 193 194 194 194 193 194 194 196 198 196 194 194
273 257 253 237 225 222 205 212 209 192 187 212 211 194 198 191 180 180 185 189 193 197 196 197 196 196 194 193 192 192 192 193 194 196 197 196 197 197
270 255 254 229 226 230 217 215 214 204 187 194 211 193 192 178 171 177 178 182 197 197 197 197 197 195 194 193 192 191 190 192 193 195 195 196 195 197
289 255 235 212 217 218 218 218 209 196 186 189 198 184 180 175 167 174 178 185 192 186 192 191 192 194 196 194 193 193 193 192 192 193 193 193 191 194
333 315 274 243 231 209 202 198 190 185 182 189 190 182 180 174 184 178 179 169 182 175 169 184 181 189 198 199 196 196 195 195 192 189 188 187 186 188
343 332 315 315 307 293 269 214 189 186 190 190 197 194 199 192 182 177 167 164 191 184 171 188 178 194 200 201 200 197 196 195 192 190 187 186 185 185
340 331 333 347 349 332 308 292 235 221 207 194 198 205 198 193 180 183 184 177 184 170 153 185 182 202 204 201 195 195 196 197 195 192 189 187 186 185
347 336 327 327 331 342 325 333 289 267 240 218 211 216 213 199 190 187 177 149 102 133 148 174 183 195 195 195 196 196 194 193 194 192 188 186 185 185
346 348 335 326 327 1 64 298 301 298 285 253 226 222 214 200 180 157 160 161 171 188 175 165 170 161 179 204 200 196 193 191 192 191 189 185 184 183
339 341 345 333 327 333 231 227 262 275 288 314 295 252 211 193 191 188 180 177 165 188 187 167 162 151 181 215 196 196 197 198 195 192 190 188 182 179
329 328 324 333 329 322 300 238 246 252 240 234 260 266 209 194 199 197 192 184 181 196 178 162 162 163 166 175 204 198 191 189 190 197 197 192 186 180
294 302 306 318 322 322 308 279 287 280 207 202 222 241 231 218 205 194 193 196 195 189 174 164 164 171 161 165 198 196 192 188 184 191 192 190 193 193
279 295 308 316 322 323 308 297 301 290 213 213 228 239 231 218 190 175 167 160 146 165 172 177 165 163 164 171 176 175 184 199 189 187 186 187 188 182
312 318 325 329 324 306 310 314 294 246 230 228 236 243 223 192 192 179 173 168 160 176 178 181 177 167 172 175 172 181 180 187 186 190 185 190 189 188
319 339 344 342 339 332 325 309 294 280 260 251 235 236 232 219 214 190 168 166 182 188 184 174 170 171 178 170 180 192 186 190 185 176 176 192 205 200
28 332 321 319 312 310 311 310 297 270 254 240 235 230 230 227 225 212 191 188 200 202 196 179 161 149 139 251 204 192 191 193 182 173 170 187 211 208
357 305 299 298 296 293 290 285 281 273 261 242 238 233 230 228 222 221 212 208 214 213 205 185 180 182 199 222 236 203 188 182 171 176 184 188 205 209
296 289 289 288 286 285 283 280 278 279 265 249 246 242 233 227 226 223 216 214 215 212 210 200 200 201 206 207 204 215 197 182 179 188 189 186 207 209
324 310 302 298 294 289 283 279 275 270 264 253 246 241 236 230 236 234 226 221 214 212 217 219 216 201 174 132 171 228 220 204 192 183 173 166 181 191
331 323 317 313 308 303 300 296 288 279 273 263 258 253 244 235 236 235 231 226 221 218 222 220 186 169 175 197 213 216 214 202 212 210 196 181 175 191
331 327 325 326 325 320 315 312 307 299 288 279 271 261 251 247 244 237 232 230 228 224 217 208 189 189 201 205 210 210 206 197 185 191 228 226 220 223